Location: Karlovy Vary
(50.2170°N, 12.9000°E)
Time: 00:29:24
(UTC+01:00)

ISS - Pass Details

Date: 03 October 2020
Orbit: 417 x 420 km, 51.6° (Epoch: 30 October)

Event Time Altitude Azimuth Distance (km) Brightness Sun altitude
Rises 21:09:00 0° 282° (WNW) 2,368 1.4 -23.9°
Reaches altitude 10° 21:11:44 10° 258° (WSW) 1,500 -0.3 -24.3°
Enters shadow 21:13:23 15° 229° (SW) 1,236 -1.1 -24.6°
